Theta_e
321 325 328 329 330 331 331 330 331 328 326 329 328 327 327 325 326 327 329 341 353 352 351 353 352 353 353 352 355 354 353 354 353 353 352 350 350 349 348 347 347 348 348 348 347 346 345 344 345 345 342 338 336 334 333 335 336 336 336 336 335 334 335 335 336 338 338 338 337 336 337 339 340 342 344 345 346 347 346 345 344 343 344 345 345 345
324 326 329 330 329 330 330 327 326 327 326 328 329 328 327 325 326 326 326 336 349 349 348 352 352 353 352 350 354 355 352 352 353 353 353 351 350 349 348 347 347 347 348 348 348 347 346 346 345 345 345 343 340 336 334 335 336 336 336 336 336 334 334 335 337 337 338 337 337 337 337 339 340 341 344 346 346 346 346 345 343 342 343 344 345 345
325 328 329 330 330 329 328 325 325 327 327 328 328 328 326 326 326 325 331 341 347 346 347 350 351 350 351 350 353 356 353 353 354 353 353 352 350 349 349 348 347 346 347 347 347 347 347 346 346 346 345 344 343 341 338 336 336 336 337 337 337 335 334 336 337 337 338 338 338 338 338 341 341 341 344 346 346 346 346 344 342 341 343 343 344 345
327 329 330 330 330 329 328 326 327 328 328 328 328 327 326 326 325 323 332 346 349 346 347 349 348 348 350 350 352 355 355 354 354 353 353 352 350 349 348 347 347 346 346 346 347 347 347 347 347 346 345 345 344 344 342 339 337 336 336 337 336 336 334 334 337 338 338 339 339 340 340 342 342 341 344 346 346 346 346 343 340 342 343 343 343 344
329 329 330 330 329 330 331 329 329 330 329 328 327 328 327 327 327 323 330 346 349 347 348 348 344 345 350 351 352 354 354 354 354 353 353 352 351 349 348 348 347 346 346 346 346 346 347 347 347 346 345 345 344 344 344 342 340 337 336 336 336 336 334 334 336 338 338 339 340 341 341 343 343 342 343 346 346 345 343 341 341 343 343 343 344 344
330 328 327 328 328 329 331 330 330 329 329 328 327 328 327 327 328 325 327 336 334 335 344 346 336 336 346 351 352 353 353 353 354 354 354 352 352 350 348 348 347 346 346 345 346 346 346 346 346 345 345 345 345 344 344 344 343 340 336 335 335 336 336 334 335 337 338 339 340 341 341 341 342 341 342 343 344 344 342 341 341 343 343 343 344 344
327 325 325 328 328 328 330 330 328 327 327 327 326 327 327 328 328 326 326 327 323 324 338 344 331 328 338 346 351 354 353 353 353 353 355 353 352 352 349 348 347 347 347 346 346 346 345 346 345 345 345 345 345 344 344 344 344 342 339 337 336 335 336 336 336 336 338 339 339 340 341 340 339 339 340 342 344 344 343 343 343 343 343 344 345 344
325 323 323 326 327 326 328 327 326 326 326 325 325 325 327 327 327 327 326 325 323 322 332 343 338 330 333 340 348 353 353 354 354 352 353 354 353 352 351 349 348 347 347 347 346 346 345 345 345 345 345 345 345 344 344 344 344 344 343 340 338 336 336 336 337 337 337 338 339 339 340 340 340 338 338 341 344 344 344 344 344 343 343 344 345 345
321 321 322 325 327 326 327 326 325 326 326 326 325 324 325 327 326 327 325 324 324 321 322 335 342 333 331 340 348 353 354 354 353 352 353 354 354 353 352 351 349 348 347 347 346 346 345 345 345 345 345 345 345 344 344 344 344 344 345 343 340 337 336 336 336 338 338 338 339 339 339 339 339 338 338 340 344 344 344 345 345 345 345 344 344 344
315 317 317 320 322 322 323 321 322 325 327 325 323 322 323 324 324 325 324 322 321 320 319 328 337 329 326 339 348 348 349 348 347 348 352 355 354 353 353 351 350 349 348 347 347 347 346 345 345 345 345 345 344 344 345 345 344 345 345 344 342 339 337 336 336 337 338 338 338 339 339 339 338 338 337 339 342 344 343 344 346 346 346 345 343 344
314 315 315 316 316 316 317 315 319 323 324 323 322 323 322 322 324 323 323 321 319 320 319 323 335 328 323 335 343 342 344 342 343 344 347 353 355 353 353 352 352 350 349 348 347 347 346 346 345 345 345 345 345 345 345 345 345 345 345 345 344 341 339 338 336 336 337 338 338 338 338 338 339 338 337 336 340 343 343 343 346 346 346 344 343 344
315 316 315 315 314 314 315 315 316 319 320 321 323 324 322 322 323 321 320 320 319 321 318 321 333 329 324 333 339 340 342 341 342 343 343 348 352 354 354 352 352 351 350 349 348 348 347 347 345 346 345 345 345 345 345 345 345 345 346 345 345 345 343 340 338 336 336 337 338 337 337 338 338 338 336 335 336 340 343 343 344 346 346 344 343 344
315 314 314 314 314 314 314 316 316 316 319 321 322 322 320 320 321 320 320 320 319 320 318 323 333 330 329 336 339 340 342 340 341 342 342 344 347 351 353 353 353 351 351 350 349 349 349 348 346 346 345 345 345 345 345 345 345 346 346 346 346 346 345 342 339 337 336 336 337 337 337 337 339 338 336 334 334 336 341 343 344 345 345 343 341 342
313 314 314 314 315 314 314 316 317 317 319 321 320 321 320 320 320 321 320 319 320 319 318 326 334 330 331 337 339 341 341 340 341 342 342 343 343 346 350 353 353 352 352 351 350 350 349 348 347 346 347 346 346 346 346 346 346 347 347 346 346 345 345 344 341 338 335 336 336 337 337 338 338 338 337 335 334 334 337 341 344 345 344 341 340 340
314 314 314 314 314 314 314 314 314 315 317 317 318 320 320 320 320 320 319 319 319 319 323 330 330 328 331 336 338 341 340 340 342 341 342 342 342 344 347 350 353 353 352 351 351 350 349 349 348 347 347 347 346 346 347 347 347 347 347 347 347 346 346 345 344 341 338 335 335 336 336 338 338 339 337 335 333 333 334 337 343 345 345 342 340 339
314 314 313 313 313 313 313 314 313 314 317 317 317 319 319 319 320 320 319 319 319 320 325 330 326 326 331 334 338 339 339 340 341 342 342 342 341 343 344 347 349 351 352 352 351 350 350 349 348 348 348 347 347 347 347 347 347 348 348 348 348 346 346 345 345 344 340 336 334 334 335 336 338 338 338 336 334 333 333 334 338 342 345 344 341 339
314 314 313 313 313 313 313 313 313 314 316 317 318 317 318 317 319 321 320 319 319 318 322 325 324 326 328 329 336 338 336 337 339 340 342 342 342 342 342 343 344 347 350 351 352 351 350 350 349 349 348 348 348 348 347 348 348 348 348 348 348 347 347 346 345 345 343 338 334 334 334 333 336 337 338 336 335 334 334 334 335 339 343 345 343 340
314 314 313 312 312 313 313 312 313 314 315 317 317 317 317 316 318 321 320 319 318 316 320 324 327 331 329 329 337 339 335 335 335 338 341 341 342 342 342 342 341 343 346 348 351 352 350 350 349 348 348 348 349 348 348 348 349 349 348 349 348 348 347 346 345 345 344 341 337 335 333 332 333 335 336 336 335 335 334 334 335 336 339 343 343 341
312 313 313 312 312 312 312 313 315 315 315 316 316 315 316 318 319 321 320 319 318 318 322 325 328 332 333 333 338 339 336 335 334 335 338 339 340 341 342 342 341 341 343 346 349 351 351 350 350 349 348 348 348 349 349 349 348 348 349 349 348 348 347 347 346 345 344 344 341 338 336 333 331 332 334 334 334 334 334 333 334 334 336 340 342 341
312 314 313 312 311 311 313 314 314 314 315 315 315 314 316 318 320 320 320 319 318 319 322 324 326 329 332 335 339 339 337 334 334 334 335 337 339 339 340 340 341 341 342 344 347 350 352 350 350 349 348 348 348 348 348 348 348 348 348 348 349 348 348 347 346 345 344 345 344 341 339 335 332 331 331 332 333 333 334 332 333 334 335 336 338 340
313 314 312 312 312 312 313 313 312 312 313 314 315 314 314 316 318 319 319 318 319 320 322 324 327 327 330 334 337 338 336 334 333 333 334 336 337 337 338 339 340 341 341 344 346 348 351 351 350 349 348 348 347 347 347 348 348 348 348 348 348 348 348 347 346 346 345 345 344 343 341 339 336 333 331 331 332 332 332 332 332 333 333 335 336 337
313 313 313 313 313 313 312 311 311 311 312 312 313 312 312 314 317 320 320 318 318 321 322 324 327 327 329 333 334 335 336 334 334 334 335 335 335 335 337 337 339 340 341 343 346 348 350 351 350 349 348 348 347 346 347 347 347 348 347 348 347 347 348 347 347 346 345 345 345 344 343 341 340 337 334 331 331 332 332 331 331 331 332 334 334 335
314 314 314 313 312 312 311 310 311 311 311 312 312 312 312 312 315 318 320 319 319 321 322 324 327 328 330 332 333 333 335 335 334 334 335 334 334 334 334 336 338 339 340 342 345 348 350 350 351 349 348 349 348 347 346 346 346 347 347 348 347 347 347 347 346 346 345 345 344 344 344 343 342 341 338 334 332 331 332 332 331 330 330 332 333 334
314 314 314 314 313 312 312 311 311 311 311 312 312 312 312 312 312 313 317 319 319 319 320 323 328 328 329 332 333 333 334 334 333 333 333 333 334 334 333 333 335 338 340 342 344 345 347 349 350 350 349 349 347 347 346 346 346 346 346 346 347 346 347 347 347 347 345 345 344 345 345 344 343 342 341 339 334 330 330 331 330 330 329 330 331 332
312 314 314 315 314 314 314 313 312 312 311 312 312 311 312 312 312 313 316 319 320 319 318 322 325 324 327 331 332 332 333 332 331 331 332 332 333 333 333 332 332 334 338 341 343 344 345 347 347 348 348 348 347 347 347 346 345 345 346 345 346 346 346 346 346 346 346 345 345 344 344 345 344 343 342 342 339 333 330 330 330 330 330 329 329 329
312 313 314 314 313 313 315 314 314 314 312 312 312 311 312 313 312 314 317 320 321 319 318 320 321 321 326 331 330 330 331 330 330 330 330 331 331 331 332 331 331 332 333 337 341 342 344 345 346 346 347 347 348 347 347 346 346 345 345 345 346 345 345 345 345 346 346 345 345 344 345 345 344 344 344 343 343 340 335 331 329 329 329 329 329 328
313 312 313 315 314 313 314 314 312 312 312 312 312 311 312 313 314 314 316 318 319 319 319 319 319 323 329 331 329 329 328 327 329 329 328 329 329 330 330 330 330 330 330 332 336 339 341 343 345 346 346 347 347 346 346 346 346 345 345 345 345 345 345 345 345 345 346 346 345 345 345 345 345 344 344 344 344 344 342 338 335 331 329 328 328 328
314 312 312 313 312 311 312 311 310 311 312 311 311 311 312 315 316 315 316 317 316 317 318 318 322 328 330 329 329 328 326 327 328 328 328 328 328 328 329 329 328 328 328 328 330 333 336 339 342 344 345 346 346 346 345 346 345 345 345 345 345 345 345 345 345 345 345 345 345 345 345 345 345 345 345 345 344 345 344 343 342 339 336 333 329 327
313 311 311 312 311 310 310 310 310 311 311 311 311 311 312 314 318 319 320 318 315 317 320 320 325 330 329 328 329 327 326 327 327 327 327 327 327 327 327 327 327 327 327 327 328 328 330 333 337 340 343 345 346 346 345 345 345 344 344 344 344 344 344 345 345 345 345 345 345 346 346 346 345 345 345 345 345 345 345 344 344 344 343 340 337 332
313 312 311 311 311 311 310 310 310 310 310 310 310 311 313 316 319 321 324 324 320 321 323 323 327 328 326 326 328 327 326 327 326 327 327 326 326 326 326 326 326 326 326 326 327 327 326 328 330 334 339 342 345 346 346 346 345 345 344 343 343 344 344 344 345 345 345 345 345 346 346 345 345 345 345 346 345 345 345 345 345 345 345 344 344 342
313 314 312 310 311 311 310 310 310 310 311 310 310 312 315 317 320 323 325 325 325 326 326 325 327 327 324 325 327 327 327 327 326 327 326 326 326 325 325 326 325 325 325 325 326 327 326 326 326 329 333 337 340 343 346 347 346 346 345 344 344 343 343 343 344 344 345 345 346 346 345 345 346 346 346 346 346 345 346 345 345 345 346 346 346 346
312 312 311 310 310 311 310 310 310 310 310 310 311 313 315 317 319 323 324 325 326 327 326 326 327 326 324 324 326 326 327 327 326 326 326 326 326 325 325 325 325 325 324 323 324 325 326 326 326 325 327 332 336 339 342 346 347 347 347 346 345 344 343 343 343 344 344 345 345 346 345 345 345 345 346 345 346 346 346 346 346 346 346 346 346 347
311 311 311 310 309 310 310 310 311 310 309 310 311 313 316 318 320 322 324 324 325 325 325 326 327 325 324 324 324 324 327 327 325 325 325 325 325 326 325 325 324 324 323 323 323 323 324 326 327 326 325 327 331 335 338 343 346 348 348 348 348 346 345 344 344 344 344 344 345 345 345 345 345 345 346 346 346 346 346 346 346 346 346 347 347 347
312 311 312 311 310 310 310 311 311 309 308 310 311 312 315 317 318 320 323 323 324 324 324 325 325 324 324 324 323 323 325 326 324 324 324 324 324 325 325 325 325 324 323 322 322 322 322 324 325 326 325 324 328 333 335 339 344 347 348 349 350 349 347 346 345 345 345 344 344 346 345 345 346 345 346 346 346 346 346 347 346 347 347 347 347 347
312 312 313 313 311 310 311 310 308 307 308 310 311 313 316 316 316 319 322 321 321 322 323 322 322 322 322 322 322 323 323 324 324 323 323 322 322 323 323 324 324 324 323 322 322 322 322 323 324 325 325 325 326 329 333 336 340 344 347 349 350 351 350 349 347 346 347 345 344 344 345 345 345 346 346 346 346 346 346 346 346 347 347 347 347 348
312 312 313 313 311 311 311 308 307 308 310 311 312 315 316 316 317 320 321 320 318 318 320 320 320 321 321 321 321 322 322 324 325 323 321 320 320 320 321 322 323 324 323 323 322 322 322 322 323 323 325 325 324 325 329 333 336 339 343 346 350 351 352 352 350 348 348 349 347 345 345 346 346 346 346 346 346 346 346 346 347 347 347 348 348 348
313 313 313 312 311 311 311 310 310 311 311 313 315 316 316 316 317 318 319 319 318 317 319 319 318 319 319 319 318 319 321 324 326 325 321 319 318 318 319 320 321 322 323 323 322 322 322 322 322 322 323 324 325 325 324 327 332 335 337 340 344 348 350 351 352 351 350 350 349 348 347 346 346 346 347 346 346 347 346 347 348 348 348 348 348 349
313 313 313 312 312 312 311 311 312 310 310 314 317 316 315 315 316 316 316 317 317 317 317 317 317 317 317 316 316 317 320 323 325 325 322 318 317 317 317 318 319 320 321 321 321 321 322 321 322 322 322 323 325 326 325 325 328 332 335 336 338 341 345 347 349 351 352 351 350 350 349 349 348 348 348 347 347 347 348 348 349 349 349 349 349 350
312 313 312 312 312 312 311 311 312 310 311 314 316 315 314 314 315 315 314 315 316 315 315 315 315 315 315 315 314 316 318 320 322 322 319 316 315 315 315 316 318 318 319 319 320 321 321 321 321 321 321 322 324 326 327 328 328 329 331 334 337 338 340 343 345 348 351 352 351 351 350 350 350 349 349 348 348 348 349 349 349 350 350 350 351 351
312 312 312 311 312 313 312 311 312 312 312 314 315 314 313 314 315 314 313 315 316 314 313 313 313 314 314 314 314 314 316 317 317 317 314 312 312 313 312 313 316 318 318 318 319 320 320 320 320 320 321 321 323 326 328 329 329 329 327 329 334 336 338 341 344 347 351 352 352 352 352 351 351 351 351 350 350 350 350 350 351 351 351 351 352 353
313 313 312 311 312 313 313 312 312 312 314 315 315 314 313 313 314 313 313 315 315 313 312 312 312 312 313 312 313 313 314 314 314 313 311 310 311 312 311 312 314 315 317 318 318 319 319 320 320 319 320 320 321 324 326 328 329 329 328 326 328 331 335 338 342 345 349 350 351 353 353 353 353 353 353 353 353 352 351 352 352 352 352 353 353 354
313 314 313 312 312 313 313 313 313 313 314 315 314 314 313 313 313 314 313 312 312 312 312 311 311 311 311 312 312 312 312 312 311 311 311 310 310 310 310 311 311 313 316 318 318 319 319 319 319 319 319 320 320 322 324 326 327 329 330 329 327 327 331 335 339 341 344 346 350 352 353 355 354 354 354 355 355 355 355 354 354 354 354 354 354 355
313 313 313 313 313 313 313 313 314 314 315 314 313 313 314 314 313 313 312 311 311 311 311 310 311 310 310 311 311 311 311 311 310 311 311 311 311 310 310 310 310 311 312 315 317 318 318 318 319 319 319 320 320 321 322 324 326 327 329 330 329 327 328 331 336 338 338 340 345 348 350 354 356 355 355 356 356 356 357 357 357 357 357 356 356 357
313 313 313 313 313 313 313 314 314 314 314 313 313 314 314 313 312 310 311 312 312 310 310 310 310 309 309 309 310 310 310 310 311 311 311 311 311 311 310 310 310 310 310 311 314 317 318 318 318 318 319 320 320 321 321 322 324 326 327 329 330 329 326 327 333 337 337 335 338 342 346 350 354 354 355 355 356 357 357 358 358 358 358 358 359 359
313 313 313 313 313 312 313 313 313 313 313 312 313 313 313 311 310 309 309 311 311 309 309 309 309 308 308 309 309 310 310 310 310 311 311 311 311 311 311 310 310 310 310 310 311 314 317 317 317 318 318 319 320 320 320 321 322 324 325 327 329 329 327 326 328 334 337 335 333 335 340 345 349 351 353 354 355 356 356 357 357 356 355 356 357 358
312 311 312 313 313 312 313 313 313 312 313 312 311 311 311 310 309 309 309 309 310 308 307 307 308 308 308 309 309 310 310 310 310 311 311 311 312 312 312 312 311 310 310 310 310 311 314 316 318 317 318 318 319 319 319 320 321 322 324 326 327 329 329 327 327 329 335 337 334 332 336 342 346 348 351 354 355 356 355 356 355 353 355 356 357 358
311 311 311 313 313 312 312 314 313 313 313 312 312 311 310 309 309 309 309 309 308 307 307 307 307 307 308 309 309 310 310 310 310 311 311 311 311 312 312 312 312 312 311 310 310 310 312 315 317 317 318 318 318 318 318 319 320 322 323 324 326 327 328 329 327 327 331 337 337 335 337 340 344 346 349 352 353 355 357 356 356 356 357 358 360 360
312 311 312 313 313 312 312 313 312 311 311 311 311 311 310 310 309 309 308 308 308 307 307 307 307 308 308 309 309 310 310 310 310 311 311 311 311 312 312 312 312 312 311 311 311 310 310 312 315 317 318 317 317 318 318 319 320 321 322 323 324 326 328 329 328 326 329 335 338 338 339 340 342 345 349 351 352 353 355 356 355 357 358 360 362 363
312 312 313 313 313 313 313 313 312 311 311 311 311 311 310 309 309 309 308 308 308 307 307 307 307 308 308 309 309 310 310 310 310 311 311 311 311 311 311 311 312 312 312 311 311 311 311 311 313 315 317 317 317 317 318 319 320 320 321 322 322 324 326 328 328 327 329 333 337 338 339 340 340 342 345 349 351 353 354 355 356 358 359 360 362 363
312 313 313 312 313 313 313 314 313 312 312 312 311 310 309 309 309 309 309 308 308 307 307 307 308 308 308 309 309 310 310 310 310 310 310 310 311 311 311 311 312 312 312 312 312 311 311 310 311 314 316 317 317 317 318 319 319 320 320 321 321 322 323 325 327 329 330 332 336 338 338 339 340 340 342 345 348 350 351 352 354 358 360 361 361 363
313 314 313 312 313 314 313 313 312 312 311 311 310 309 309 309 308 309 309 308 308 308 307 307 308 308 309 308 309 309 310 310 310 310 310 310 310 311 311 311 311 312 312 312 313 313 312 311 310 312 315 317 317 317 318 319 319 319 320 320 321 322 322 322 325 329 330 331 335 338 338 338 339 340 340 342 344 347 349 350 351 355 358 361 362 362
Wind_Speed
10 7 6 6 5 5 4 4 2 2 2 2 1 1 2 2 1 1 2 4 12 8 8 11 11 9 7 7 10 12 14 17 19 20 19 18 20 21 21 21 22 22 23 23 26 28 27 26 23 21 20 20 20 20 20 20 20 20 20 21 20 20 21 20 20 20 20 20 20 18 17 15 13 12 12 10 8 7 6 5 4 4 4 3 3 2
8 7 6 5 4 4 2 2 2 2 2 1 1 1 2 2 2 2 3 2 10 8 5 7 10 10 8 6 10 13 14 17 21 22 22 21 20 21 22 22 22 22 20 20 24 27 28 27 26 24 23 21 21 21 21 21 20 20 20 21 21 21 22 22 21 21 21 21 20 18 17 15 13 13 12 10 8 7 6 5 5 5 5 4 3 3
7 6 5 6 4 3 2 3 3 2 2 1 1 2 2 1 2 0 2 1 7 6 2 4 7 9 7 7 10 15 15 16 21 22 23 23 22 22 23 22 22 21 20 20 23 27 28 28 28 27 26 24 22 21 20 21 21 21 21 21 21 22 22 22 22 22 21 20 19 18 16 14 13 13 12 10 9 8 7 6 6 6 6 5 4 3
6 5 7 7 4 4 3 3 4 2 2 2 2 3 3 1 1 1 3 3 5 4 2 1 5 5 4 6 9 14 16 14 17 20 20 22 23 23 23 23 23 23 23 23 23 25 27 28 29 29 28 26 25 23 21 21 22 22 22 22 22 22 22 22 23 22 21 20 19 18 16 14 13 13 12 11 10 9 8 7 7 6 6 6 5 4
5 4 6 7 6 6 4 3 4 4 3 3 3 4 4 3 3 2 2 2 3 4 3 2 4 2 2 6 7 10 13 12 14 17 18 19 22 22 21 22 24 25 26 26 25 25 27 28 30 31 29 28 27 26 24 22 22 23 23 23 22 23 23 23 23 23 22 21 20 19 17 16 15 15 15 14 12 10 9 8 7 7 6 6 6 5
4 5 7 7 6 7 6 5 5 5 4 3 5 7 7 6 6 3 1 1 2 2 3 3 3 0 2 5 6 6 9 11 13 16 18 20 21 21 21 23 24 25 27 28 27 27 28 30 32 32 31 30 30 27 25 22 21 22 22 23 23 23 23 24 24 23 23 22 21 21 19 18 18 17 17 15 13 11 10 8 7 7 7 7 6 6
2 5 6 7 7 7 6 6 4 4 6 4 4 8 10 9 8 5 4 3 2 1 1 2 3 1 1 2 5 7 9 10 12 15 18 19 21 23 24 24 24 25 26 27 27 28 30 32 33 34 33 32 31 29 26 24 22 21 21 22 23 24 24 24 25 24 24 24 23 22 20 19 18 17 17 15 13 11 10 9 8 8 7 7 7 6
3 4 3 5 7 7 6 5 6 7 6 2 3 6 10 11 10 7 5 4 2 2 0 3 2 2 1 1 1 7 9 9 11 12 15 18 21 24 26 25 26 26 27 27 28 30 31 33 34 34 34 33 31 29 28 26 24 22 21 22 23 24 25 25 25 25 25 25 24 23 22 21 19 17 16 14 13 13 12 11 10 9 8 7 7 7
2 3 2 4 6 5 5 3 6 10 7 3 3 4 6 8 7 6 5 2 0 2 2 3 3 2 1 3 4 3 5 5 8 10 12 16 20 24 26 26 27 27 27 28 30 31 33 35 35 34 33 32 31 30 29 27 25 23 22 22 23 24 25 26 26 26 26 25 24 23 23 22 20 18 16 15 14 14 14 13 11 10 9 8 8 8
1 2 3 3 2 2 3 2 4 12 7 2 5 4 3 3 3 3 3 2 2 2 2 4 6 3 1 5 6 3 2 6 6 7 11 16 18 21 24 27 28 27 27 28 30 32 35 36 35 34 33 32 32 31 29 28 26 25 23 23 24 24 26 26 27 27 27 27 26 25 24 22 21 20 17 16 16 16 15 14 12 11 10 9 9 9
2 3 4 4 4 4 4 3 3 9 3 3 7 6 4 3 3 2 1 2 2 3 2 2 7 5 1 5 7 6 7 9 8 7 6 12 18 20 22 25 28 28 28 29 29 30 34 37 35 34 34 33 33 32 30 29 28 26 26 25 25 25 25 26 27 28 28 28 28 27 25 23 22 21 19 18 18 18 17 16 14 12 11 11 10 10
4 4 2 2 4 6 3 1 1 3 2 1 4 5 4 3 2 2 3 2 4 3 1 1 6 6 1 4 6 7 10 12 9 8 9 7 12 19 22 23 25 27 27 28 29 29 30 34 36 36 36 35 35 34 33 31 30 29 28 27 27 26 26 26 28 29 29 30 30 28 26 24 23 22 21 20 19 19 18 17 15 14 13 13 12 12
5 4 5 3 2 9 5 3 3 3 3 4 4 5 5 4 3 5 3 3 4 2 1 2 6 4 2 5 7 9 11 13 11 10 11 12 10 11 18 24 25 26 28 28 29 29 28 33 38 38 38 37 37 36 35 33 32 31 29 28 29 28 27 27 28 29 30 30 31 30 28 26 24 23 22 20 19 19 18 17 16 16 16 15 14 14
3 3 7 6 2 10 9 1 3 2 3 5 5 5 6 5 5 7 4 2 3 2 1 3 4 3 5 5 9 10 10 13 13 13 13 13 15 14 11 21 25 25 27 29 29 30 29 33 38 40 39 39 39 37 36 35 34 33 31 30 29 29 28 27 27 29 30 31 31 30 28 27 25 24 23 21 20 20 19 18 17 17 17 16 15 14
1 4 6 7 3 8 9 4 2 2 1 2 1 2 4 4 4 5 4 4 4 3 3 3 3 2 6 5 9 9 10 14 14 15 17 18 19 19 13 9 20 24 26 28 28 31 32 34 38 40 41 40 39 39 38 37 36 35 33 32 30 30 29 29 28 28 29 31 31 31 29 28 26 25 24 22 21 20 20 20 19 18 17 17 15 14
2 3 4 6 3 5 7 5 4 2 1 1 1 2 2 1 1 1 2 1 3 4 3 3 2 3 5 6 10 12 13 17 19 21 23 23 23 22 20 13 7 15 22 27 29 30 32 36 40 41 41 41 40 40 40 39 38 37 35 33 31 30 30 29 29 28 28 29 31 32 31 29 27 26 25 24 22 21 21 21 20 19 18 18 16 14
2 3 3 6 1 1 7 6 3 3 1 2 1 1 1 2 2 1 2 2 1 5 3 2 3 4 4 3 11 16 15 18 21 24 25 25 25 23 22 21 17 12 13 21 27 31 33 37 42 42 41 42 42 42 42 41 39 38 36 34 32 32 31 31 30 29 28 28 29 30 31 30 29 28 27 26 24 22 22 21 21 21 19 18 17 15
0 3 2 5 2 3 10 5 1 5 4 1 1 2 2 0 1 1 2 3 4 7 3 3 4 5 1 1 10 16 17 18 18 20 24 26 27 25 24 23 22 19 13 15 22 29 33 36 41 43 42 43 43 43 43 41 39 38 37 35 34 33 32 32 31 31 30 29 28 29 29 30 30 29 28 26 25 23 22 22 22 22 21 19 18 17
1 2 3 2 3 5 9 2 3 6 8 3 2 2 0 1 2 0 2 4 6 7 3 4 4 6 4 3 9 13 15 17 16 17 19 23 26 25 24 25 25 23 15 12 17 24 28 32 38 42 42 42 43 43 42 41 40 39 38 37 35 34 32 31 30 31 31 30 29 28 27 28 29 29 28 27 26 24 23 23 22 22 21 20 19 19
2 0 2 2 4 4 5 5 2 5 6 3 2 1 2 1 0 0 0 1 3 5 4 4 3 4 5 6 8 10 12 14 14 14 15 19 23 23 23 25 25 25 21 12 12 19 24 29 34 39 41 41 42 43 42 42 41 41 40 38 37 36 34 33 32 32 32 32 31 29 27 27 28 29 29 28 27 25 25 24 23 22 22 21 20 19
2 1 1 3 4 1 2 5 4 5 6 2 1 3 3 2 1 1 1 2 1 2 4 5 4 3 5 6 8 8 9 11 12 12 13 18 21 21 22 25 25 25 26 19 5 12 18 23 26 31 38 40 40 41 41 42 42 42 42 40 39 38 36 35 35 34 33 33 33 31 29 27 26 27 28 29 28 27 26 26 24 23 23 23 22 21
2 1 1 2 4 4 5 3 3 5 8 6 4 3 3 2 1 3 3 1 1 1 1 3 4 4 4 5 7 8 8 9 13 13 13 17 20 21 22 24 26 26 28 26 15 1 9 17 21 26 34 37 38 40 41 40 42 43 43 42 40 39 38 36 36 35 34 33 34 33 31 29 27 27 27 28 29 28 28 27 26 25 24 24 24 23
1 2 4 4 4 4 4 2 3 3 4 5 6 5 3 2 2 2 2 3 2 1 1 2 4 5 4 7 8 8 8 10 12 13 14 16 18 20 23 25 29 30 31 30 24 14 5 7 12 19 29 34 36 38 39 39 42 43 43 42 42 40 39 38 37 36 34 34 34 33 32 31 30 28 27 28 29 29 29 29 28 26 25 25 25 24
1 1 4 5 3 1 3 2 1 2 2 2 6 7 5 3 2 2 1 1 1 2 1 2 4 5 4 8 11 11 10 10 12 14 15 16 17 19 22 25 30 34 35 33 29 22 14 7 6 7 16 28 34 37 37 38 40 42 42 42 42 42 40 39 38 37 35 35 34 34 34 33 32 30 30 29 29 29 29 30 29 28 26 26 26 25
1 1 1 3 3 2 3 3 3 1 2 2 4 7 7 6 3 0 1 1 1 2 2 1 4 4 3 7 10 11 11 11 14 16 16 17 18 19 20 24 28 34 37 36 32 28 21 13 8 5 4 15 25 31 35 38 38 39 41 42 42 42 41 41 40 38 36 35 35 36 36 35 34 33 32 30 29 28 29 30 30 29 28 27 27 26
1 1 0 1 2 3 2 2 2 1 2 2 3 7 8 9 6 1 0 0 2 1 3 2 4 5 4 7 10 11 11 12 14 17 16 17 19 19 20 23 25 30 37 39 35 31 27 21 16 11 6 4 11 18 27 35 38 38 39 40 41 41 42 42 41 40 38 37 37 37 37 36 36 35 33 31 29 28 28 29 29 30 29 29 28 28
2 3 3 2 2 1 2 4 1 1 2 2 3 7 8 8 7 3 1 1 2 1 2 4 4 4 5 8 10 10 11 11 13 17 18 18 19 20 20 21 24 28 36 39 37 34 31 26 21 16 11 5 4 9 14 23 31 36 38 39 39 40 42 42 42 41 40 38 38 38 37 37 37 36 34 31 30 29 28 28 28 29 29 29 30 30
3 3 4 5 7 5 5 5 2 1 3 3 3 6 7 7 6 4 3 3 1 1 3 4 3 3 5 7 8 9 10 11 13 17 17 17 18 20 20 21 24 29 34 38 37 36 35 32 27 21 16 11 4 4 9 14 20 27 34 38 39 40 41 42 42 42 41 40 40 39 37 37 37 36 34 33 31 31 30 30 29 28 28 29 30 31
2 3 3 4 8 6 5 5 3 2 3 1 2 3 4 6 6 5 5 3 2 1 3 4 4 5 5 6 7 8 9 10 13 14 15 16 18 20 21 23 25 27 30 34 35 35 35 35 33 28 22 17 10 3 4 11 16 21 26 31 36 39 40 41 41 41 40 41 42 40 37 36 37 37 35 34 33 32 32 31 30 29 29 29 29 30
1 3 3 3 7 7 5 5 4 4 2 1 2 2 2 3 4 5 5 4 3 4 4 6 8 7 5 5 6 7 8 9 11 13 15 17 20 20 21 23 24 25 27 30 32 32 32 32 33 32 28 22 16 11 5 3 10 17 21 26 30 35 39 41 42 40 40 42 42 41 39 38 38 37 36 36 35 33 33 33 32 31 30 30 29 30
1 2 2 2 4 4 4 4 3 3 3 2 2 2 1 1 3 4 4 4 4 5 5 7 8 6 5 5 5 6 8 9 11 13 15 17 19 20 21 22 23 23 25 28 29 29 29 30 31 32 31 27 22 17 12 6 4 9 16 22 26 29 33 38 41 40 41 42 41 41 41 40 40 39 38 36 35 34 34 33 33 33 32 30 30 30
2 2 1 1 3 3 3 3 3 2 0 1 2 2 2 2 3 4 4 3 2 4 5 6 4 3 4 5 4 5 7 9 11 12 13 15 17 18 20 21 22 22 24 26 27 27 27 27 28 29 30 28 26 22 17 12 8 6 10 16 22 26 29 33 37 40 41 41 41 41 41 41 42 41 39 38 36 35 35 34 34 34 32 31 31 31
1 2 2 2 3 3 2 3 3 0 2 3 2 2 2 3 3 3 4 4 3 2 3 3 3 3 3 4 4 4 6 7 10 11 11 14 15 16 18 19 20 22 24 26 26 26 25 26 25 25 26 27 26 25 22 17 12 9 9 11 16 21 26 29 32 37 40 42 41 41 41 41 42 43 41 39 38 36 35 36 36 34 33 32 32 31
1 2 2 1 1 3 1 3 2 3 3 2 3 1 1 2 3 2 4 5 4 2 3 4 5 4 3 4 4 4 5 4 6 9 10 12 14 15 17 18 19 22 25 27 27 26 24 24 24 23 23 24 25 25 24 20 15 11 10 10 11 14 21 27 30 32 37 41 42 41 41 42 42 42 41 40 39 38 38 37 36 35 34 34 34 33
2 2 2 0 1 2 1 2 3 3 0 2 2 1 1 0 2 4 5 4 4 3 4 5 4 4 4 4 5 5 5 3 1 6 10 12 14 15 16 17 18 20 23 26 27 27 26 24 22 22 23 22 23 24 24 22 17 13 10 9 10 11 15 21 26 29 32 37 40 41 41 42 43 42 41 40 40 40 39 38 37 36 36 35 35 34
3 2 2 1 1 1 1 2 3 0 2 0 1 1 2 3 4 4 4 3 3 3 2 3 3 3 4 5 6 8 7 4 6 1 8 13 15 16 16 17 18 18 20 23 24 25 26 25 23 21 21 21 21 22 23 24 21 17 14 12 10 11 12 16 22 26 27 29 34 39 42 42 42 42 41 41 41 41 40 39 38 37 36 36 35 34
3 3 2 1 1 1 1 2 1 1 1 4 3 2 2 2 3 2 2 3 3 2 2 2 3 3 4 5 8 11 8 3 8 5 4 12 15 16 16 16 17 17 18 19 21 22 24 25 24 22 20 18 19 20 22 23 23 20 17 15 13 11 11 12 17 22 25 25 27 34 39 41 42 42 42 41 42 42 40 39 38 37 36 37 36 35
1 1 2 2 1 1 1 1 1 2 2 3 5 4 2 1 2 1 2 2 5 3 2 2 2 4 4 6 9 11 7 3 6 4 4 13 17 17 18 17 16 17 17 17 19 20 21 23 25 24 22 19 18 19 20 22 22 22 20 18 15 13 12 12 13 17 24 27 28 30 34 37 40 41 41 42 43 42 41 39 38 37 37 37 37 36
3 1 1 2 1 2 3 2 2 2 1 3 6 7 3 3 5 3 3 3 5 4 2 2 2 3 4 5 7 8 5 3 3 2 8 17 20 20 21 20 17 17 17 17 18 19 20 21 23 24 24 22 20 18 18 19 20 21 23 22 18 15 14 13 10 10 20 28 30 31 33 34 37 39 40 41 42 42 42 41 40 38 38 38 37 37
3 2 2 3 3 3 3 2 2 2 1 3 7 7 5 5 7 5 4 2 5 4 1 1 2 3 3 4 5 4 3 3 4 8 14 19 20 20 22 22 20 19 18 17 17 17 18 19 21 23 25 25 23 20 17 18 19 20 22 23 22 18 14 13 10 5 15 24 28 31 34 35 36 38 39 41 42 42 42 41 40 39 39 39 38 38
2 1 2 3 3 4 5 4 3 3 1 4 8 8 6 5 5 5 3 3 5 4 1 2 4 4 4 5 5 4 5 7 10 15 19 20 20 20 21 21 21 20 19 18 17 17 17 18 19 21 23 24 24 22 19 17 17 19 20 22 23 23 18 14 11 7 9 14 19 26 30 33 35 36 35 36 38 40 41 42 42 41 40 39 39 39
2 2 2 3 3 3 3 4 4 3 2 7 9 7 6 4 4 3 1 4 4 4 2 3 6 6 6 7 7 8 10 12 14 17 19 20 20 21 21 22 23 21 19 18 17 16 17 18 19 20 21 23 24 24 22 19 16 17 19 20 22 23 21 17 14 11 11 11 11 17 22 27 32 35 34 33 33 35 37 39 39 40 40 40 40 41
3 3 3 3 3 2 3 5 5 3 2 11 12 7 6 5 0 2 2 1 2 3 2 4 6 8 8 10 11 12 14 15 15 16 18 20 21 22 22 22 23 24 22 21 19 17 17 19 20 20 20 21 23 23 23 21 18 15 16 18 19 21 22 21 18 14 13 11 11 12 14 20 28 33 33 33 32 32 33 34 34 36 38 40 41 43
4 4 3 3 4 3 4 5 3 2 4 15 11 3 4 5 2 3 1 2 2 3 4 5 7 9 10 11 14 16 16 16 16 15 17 19 21 23 24 23 23 24 24 23 21 19 18 19 21 21 19 19 21 22 23 23 20 16 14 15 17 19 21 22 21 18 14 11 11 13 12 16 23 28 29 31 33 33 33 32 32 33 35 37 38 41
3 2 1 1 3 4 4 2 1 2 7 15 10 1 4 7 5 5 4 3 3 4 5 6 8 11 11 11 13 15 17 17 17 17 17 18 20 21 24 25 24 24 25 25 23 21 20 21 21 22 21 18 18 21 23 23 22 19 15 14 14 16 19 21 22 22 18 13 11 12 13 14 17 20 24 29 34 36 36 33 30 32 35 38 39 39
1 2 1 0 1 3 7 7 4 4 9 14 10 4 5 5 5 5 5 5 5 6 6 8 10 12 13 13 13 14 16 17 19 19 18 18 19 20 21 22 23 24 25 26 25 23 22 22 22 22 22 19 18 20 22 23 23 21 18 15 14 14 16 18 20 23 23 18 13 12 13 15 15 16 18 23 29 35 36 33 29 30 34 38 39 37
3 6 5 2 1 2 4 5 6 8 13 15 11 8 8 7 6 6 7 6 6 7 8 9 11 13 14 14 14 14 16 17 18 19 19 19 19 19 18 19 21 24 25 26 27 25 23 23 23 22 22 21 19 19 21 22 22 21 20 17 15 13 13 15 18 22 24 22 16 12 12 14 14 14 16 18 21 28 32 31 29 30 34 37 35 30
5 8 6 5 5 5 3 2 3 6 10 13 13 12 12 10 8 8 9 7 8 8 8 9 12 13 14 14 14 14 16 17 17 19 19 20 20 19 19 19 20 23 26 27 27 27 26 25 25 23 23 23 22 19 19 21 21 21 20 19 17 14 12 12 15 20 23 24 21 16 13 12 12 13 17 19 21 25 28 29 29 29 33 36 34 29
7 8 5 4 6 7 7 7 7 6 7 12 16 17 16 13 10 10 10 9 9 9 9 10 12 12 13 14 14 14 15 17 17 18 20 21 21 20 20 21 21 23 26 27 28 29 28 27 27 26 25 25 23 21 20 20 20 21 20 20 19 17 14 12 12 15 19 22 23 21 16 12 11 14 18 22 25 27 28 29 30 30 32 36 36 33
7 5 4 3 4 6 6 7 9 6 6 8 13 15 15 12 11 11 11 10 10 9 9 11 12 12 12 13 13 14 16 17 18 20 21 21 21 21 21 21 22 23 24 25 27 29 30 30 28 27 26 25 23 22 21 21 20 20 20 20 20 19 17 15 11 10 14 18 21 22 20 15 11 12 16 20 27 31 31 31 32 32 35 39 39 37
13 10 8 7 8 9 9 10 10 9 7 6 7 9 11 11 11 11 11 10 10 9 9 10 12 13 13 14 14 14 17 18 19 21 22 22 23 23 23 22 22 24 25 25 25 27 30 31 30 29 27 24 23 23 23 22 21 21 20 21 21 20 20 18 14 10 10 14 18 21 22 19 15 13 14 17 23 30 33 34 36 36 36 38 40 39
Wind_Direction
173 168 189 194 185 189 196 214 204 97 94 76 74 26 9 331 339 4 357 185 190 204 218 218 232 237 211 180 178 183 188 196 199 201 201 196 195 194 195 197 198 202 204 206 211 214 215 215 213 211 209 207 207 208 207 206 207 206 204 201 199 197 197 197 196 194 194 194 193 192 191 191 189 184 181 179 177 173 166 166 165 148 140 130 119 120
182 191 183 170 176 193 196 177 149 121 135 144 229 288 307 273 330 9 357 208 193 211 229 216 238 246 228 195 174 177 191 199 198 201 203 200 198 198 198 200 201 204 203 202 208 214 217 218 217 216 213 211 209 207 206 207 209 209 208 205 202 200 199 199 199 198 197 197 195 195 195 194 193 190 186 184 182 182 181 180 177 166 153 144 138 132
188 199 165 163 179 164 111 144 162 150 157 171 207 260 262 269 317 337 17 4 193 212 253 210 239 252 235 206 180 181 194 202 199 199 200 198 198 200 200 199 200 201 200 200 206 211 216 219 221 220 217 214 213 209 207 208 210 211 211 209 206 204 202 201 201 201 201 201 199 199 199 198 198 195 191 189 189 191 193 190 183 176 164 154 153 154
179 184 172 173 166 165 164 159 165 160 182 208 208 237 242 261 281 194 48 39 178 208 317 256 251 264 227 205 195 193 197 199 198 199 200 198 200 202 201 200 199 198 200 202 205 208 212 216 220 223 220 217 216 215 211 209 210 212 212 212 209 205 204 205 204 204 204 203 203 203 203 202 202 200 197 195 195 197 197 192 185 180 173 167 166 165
153 131 159 172 174 197 208 174 189 221 221 217 217 235 245 233 242 245 44 62 181 220 268 274 271 269 204 209 208 198 197 197 194 196 201 202 203 205 203 203 201 200 202 204 204 205 208 213 219 224 223 220 218 218 215 213 211 212 213 214 212 209 206 206 207 206 206 205 204 206 206 205 204 202 201 200 199 200 197 189 184 183 180 177 175 168
166 134 149 163 177 200 217 215 215 230 239 235 213 216 230 236 238 228 170 203 244 224 217 253 284 40 161 214 213 189 195 205 199 198 203 203 202 205 206 207 205 204 206 207 206 206 208 215 222 225 225 223 222 220 218 217 216 214 214 215 215 214 209 207 208 208 209 208 208 210 210 209 207 205 204 202 201 202 197 187 185 187 185 183 180 172
153 144 160 170 172 181 206 225 207 200 233 249 201 200 211 221 227 221 203 218 275 30 123 244 281 339 103 210 210 191 194 207 206 207 207 203 202 204 207 208 208 206 206 207 207 208 211 216 221 224 226 226 224 222 220 219 219 217 216 216 216 217 214 210 208 209 211 212 213 215 215 215 214 211 208 204 203 204 197 188 187 191 192 189 185 178
156 149 166 173 172 180 204 222 192 187 221 233 161 186 200 210 215 209 207 221 284 360 173 201 237 298 306 24 198 196 201 210 214 219 213 206 204 206 208 208 207 207 205 204 204 209 214 218 222 225 226 227 227 225 222 220 219 218 218 218 217 218 218 215 211 210 211 213 216 218 218 219 219 218 214 210 208 207 201 191 189 196 199 195 191 188
174 168 170 174 176 192 209 224 182 184 213 225 164 174 190 206 207 195 207 223 277 292 240 174 183 253 268 39 41 176 215 246 244 244 233 221 213 208 209 209 208 209 206 204 205 210 216 220 224 227 228 229 229 228 226 223 222 220 219 220 218 218 219 219 215 213 213 215 218 220 222 221 220 220 216 212 212 211 206 198 195 199 203 201 197 196
64 100 100 124 136 225 230 322 188 189 207 186 148 139 140 162 165 167 198 165 132 253 251 171 187 227 38 47 37 51 352 334 309 278 248 235 229 218 213 210 209 209 207 207 208 210 217 223 226 228 230 230 229 230 229 226 225 223 222 221 219 218 219 220 218 215 216 218 219 221 224 225 223 220 216 212 212 213 210 204 202 204 207 207 204 202
61 85 85 77 31 311 275 322 226 201 203 113 148 152 131 122 124 118 118 130 162 226 263 190 195 214 65 60 41 33 7 354 344 334 287 238 231 226 221 216 211 208 206 208 208 209 216 223 226 227 228 229 229 230 231 228 226 225 223 222 221 220 220 221 220 218 217 219 222 224 225 227 226 223 219 214 211 212 212 208 207 210 211 210 209 208
60 76 57 25 13 344 288 165 80 195 217 152 162 163 152 133 135 132 118 166 205 199 310 311 192 206 201 66 31 16 8 0 355 352 345 302 244 227 222 220 217 214 210 209 209 208 210 216 222 224 225 228 228 229 230 229 228 226 225 223 223 223 222 222 221 219 219 219 223 226 226 228 228 226 224 219 215 214 215 212 211 213 214 213 212 211
76 70 11 323 3 4 341 180 125 129 179 196 186 174 171 151 163 183 156 177 206 172 9 238 186 182 103 69 21 11 10 1 357 353 349 347 327 267 230 219 216 216 214 212 211 209 206 210 218 221 222 225 226 228 230 230 229 228 227 226 226 226 225 224 222 220 220 220 223 227 227 227 227 228 228 226 222 219 218 217 215 216 215 213 214 214
120 120 16 358 343 0 358 172 156 134 151 176 184 181 181 170 173 187 164 151 198 164 65 212 195 166 124 74 16 12 10 0 360 0 359 360 354 338 277 227 216 214 214 213 213 211 209 211 217 220 222 224 226 228 229 230 231 231 229 228 228 228 228 227 226 223 221 221 223 227 228 228 227 228 229 230 228 224 221 220 218 219 219 216 215 217
131 140 23 7 341 351 7 24 340 300 144 127 181 215 194 183 183 188 178 168 172 138 95 171 202 177 145 95 26 20 17 12 13 12 12 11 5 2 352 254 222 217 216 215 215 214 213 214 218 221 223 225 226 227 229 230 231 232 231 230 229 229 229 229 229 227 225 223 223 226 229 228 227 228 230 232 232 229 225 223 222 221 221 220 219 218
70 95 357 331 293 328 360 3 339 299 204 98 18 243 194 181 267 140 155 155 143 135 118 163 170 53 130 113 39 27 25 23 23 20 18 15 10 10 13 2 284 236 223 217 216 216 215 217 221 222 224 226 226 227 228 229 232 232 232 231 230 230 231 230 230 230 228 226 224 226 228 229 228 227 229 232 233 231 228 227 226 225 225 224 224 223
110 106 348 325 259 18 358 340 343 9 273 179 163 181 73 2 311 81 119 56 112 179 168 153 121 67 141 141 25 20 23 25 23 22 21 16 13 13 12 4 351 322 261 231 220 217 216 219 223 224 225 226 226 227 228 230 233 233 233 233 231 232 232 231 231 231 230 228 225 226 228 229 229 227 228 231 232 232 230 229 229 228 227 226 226 228
77 130 57 352 352 360 350 317 198 29 5 243 154 107 84 80 292 350 154 144 181 193 159 80 94 68 121 244 11 13 17 20 19 21 22 20 18 15 9 1 354 347 311 260 234 222 217 219 223 224 225 227 228 229 230 232 233 233 234 234 233 233 233 232 232 231 231 230 228 227 227 228 229 228 229 232 233 233 233 232 231 230 228 226 226 228
346 123 122 20 329 326 349 342 184 23 22 44 88 91 77 190 174 199 184 166 184 189 142 102 102 61 42 8 6 11 15 13 11 15 20 23 21 16 10 5 360 356 338 285 250 231 220 218 223 224 224 226 228 230 232 233 233 233 234 234 235 235 235 233 233 232 232 231 230 229 228 228 229 229 230 232 233 234 234 233 232 230 229 228 227 227
314 46 132 40 338 304 358 31 4 358 17 62 108 80 357 338 154 134 165 190 199 182 148 142 137 66 42 14 3 12 16 9 7 11 16 20 20 16 14 10 6 2 357 332 263 239 226 219 221 225 225 226 227 230 232 231 231 232 233 234 234 235 236 235 234 232 231 231 232 231 230 229 229 230 230 232 233 233 233 234 233 231 231 230 228 228
302 26 104 22 360 314 48 40 22 12 14 19 56 40 24 358 312 124 75 14 293 198 168 162 145 85 45 13 0 5 10 8 7 6 11 17 18 18 17 16 14 10 9 10 329 239 231 223 218 221 226 228 228 229 229 229 230 231 232 234 234 235 235 235 235 234 233 232 232 232 231 230 230 231 231 231 232 233 233 234 234 233 232 231 229 228
345 36 73 36 36 77 84 41 354 20 28 35 45 29 9 1 224 188 164 118 2 338 176 164 139 98 49 13 3 4 5 8 8 4 8 16 15 16 18 20 22 19 17 24 34 103 223 225 217 218 226 228 226 228 229 228 230 231 232 233 234 235 236 236 235 235 234 233 233 233 233 232 232 231 231 230 231 232 233 234 235 234 233 232 231 228
4 65 68 70 58 80 101 44 342 1 19 40 48 31 3 3 340 252 180 146 130 75 76 114 121 111 57 17 11 14 17 15 12 8 9 13 13 15 19 23 28 29 27 30 40 56 92 200 209 218 229 229 227 230 230 228 229 230 232 234 234 235 236 236 236 237 236 235 235 234 234 234 234 233 232 231 231 231 233 234 235 235 234 234 233 230
351 63 70 88 83 140 188 202 356 354 326 42 44 23 10 7 346 332 17 88 118 103 133 147 126 125 69 27 21 25 30 26 20 16 14 12 10 12 17 22 30 35 34 34 38 46 61 105 148 193 222 226 227 229 230 228 230 231 232 233 234 236 238 237 237 238 237 237 236 235 235 235 235 234 233 233 232 232 232 234 235 236 235 236 235 233
9 358 88 122 130 162 189 192 186 114 26 52 32 9 11 17 10 358 354 327 111 52 348 198 123 112 75 36 28 28 31 30 25 22 20 18 14 11 14 19 27 35 37 37 36 38 45 59 67 72 175 212 221 228 230 230 232 233 233 234 235 236 238 237 238 238 238 238 237 236 236 236 236 235 235 234 234 233 233 234 235 237 236 236 237 235
59 41 358 193 186 200 188 153 167 128 60 62 17 9 15 16 8 359 261 84 121 61 351 40 97 102 80 39 30 27 26 27 25 20 19 19 16 13 14 18 22 31 38 40 37 36 37 39 40 42 54 171 206 222 230 232 233 234 235 237 237 236 237 238 238 239 239 238 237 237 237 237 237 237 236 236 236 235 235 235 236 237 237 237 238 238
112 68 25 24 59 88 86 77 45 353 64 79 23 16 18 14 4 343 244 74 85 122 85 59 61 92 70 33 27 26 22 23 22 19 18 14 12 12 13 17 22 29 38 42 40 37 35 33 33 35 38 54 169 204 221 229 233 235 236 238 238 236 237 238 239 240 240 239 238 238 238 238 238 238 238 238 237 237 236 236 237 239 239 238 238 238
124 79 39 52 65 66 72 75 59 11 64 52 13 14 17 13 6 11 52 52 18 181 118 76 57 86 65 32 30 32 25 25 23 20 19 13 11 12 12 17 23 28 36 41 41 38 36 33 32 31 31 34 47 188 203 214 223 231 236 239 239 237 237 240 241 242 242 241 239 239 240 240 240 240 240 240 240 239 239 238 238 239 240 240 239 239
107 81 51 73 82 77 61 60 51 47 63 22 353 16 14 11 22 49 57 32 327 356 85 104 101 83 62 38 40 40 31 31 27 20 18 15 14 13 14 19 22 23 28 35 38 38 35 33 32 31 29 26 26 41 197 208 212 220 228 235 238 239 239 240 242 244 243 241 241 242 241 241 241 241 241 242 242 241 241 241 240 240 241 242 241 241
60 83 76 98 98 83 49 39 37 28 20 350 31 41 357 13 51 74 71 59 52 53 80 120 111 82 54 35 43 46 38 34 28 21 19 18 16 14 15 19 21 20 22 27 32 36 36 33 30 29 29 26 22 21 15 233 218 218 221 225 232 238 241 241 244 244 242 241 243 244 244 243 242 242 242 242 243 243 242 243 242 242 242 242 243 243
2 82 73 106 116 94 42 27 22 8 350 338 53 57 20 79 93 86 80 83 81 75 102 131 119 85 49 31 37 40 33 29 26 23 21 18 16 15 15 17 17 17 19 21 25 30 35 35 31 27 26 25 22 16 7 350 278 233 225 223 226 232 237 241 245 244 242 243 246 246 246 245 244 244 244 244 244 244 244 244 244 244 243 243 244 244
54 105 100 147 151 120 49 6 356 9 358 181 105 67 29 57 98 86 76 79 89 107 131 151 138 91 45 25 21 18 18 23 26 25 20 14 13 14 15 14 13 13 14 17 20 23 27 30 31 28 24 21 19 15 7 355 335 289 246 231 227 226 229 235 241 243 243 245 248 248 247 247 246 246 246 246 246 246 246 245 245 245 244 244 244 244
82 129 124 176 178 129 82 320 323 310 195 176 110 55 22 51 82 104 97 81 75 122 160 164 127 98 53 24 18 5 6 22 31 28 21 14 9 9 11 10 9 10 13 15 17 17 17 21 25 29 26 20 16 13 8 359 345 323 291 257 239 231 227 227 234 241 244 245 247 248 248 247 247 247 248 248 248 248 247 247 246 246 246 245 245 245
124 125 115 197 184 133 142 292 268 219 209 133 70 5 311 48 66 119 118 86 69 73 98 99 96 90 61 30 20 357 345 14 39 37 29 19 11 5 4 4 4 6 9 13 15 12 10 13 18 24 26 22 17 13 7 0 354 340 316 291 268 249 235 230 230 235 242 245 246 247 248 247 247 248 249 250 250 249 249 248 248 247 247 248 248 247
149 124 117 183 148 136 181 250 213 205 193 49 37 310 247 58 77 115 119 90 60 63 96 102 87 72 45 16 358 339 321 283 105 50 37 25 15 5 358 357 357 359 3 7 10 9 7 5 8 14 21 21 17 14 9 3 358 353 339 315 289 266 249 238 233 232 239 244 246 246 246 247 248 249 250 251 250 250 250 250 250 249 249 249 249 249
179 153 135 134 129 146 181 202 200 110 41 62 215 198 173 159 143 145 147 130 77 48 81 108 85 68 36 8 352 339 326 258 211 115 33 21 13 7 358 353 350 350 355 359 1 4 5 3 360 1 9 15 14 12 11 7 2 358 353 339 313 285 265 250 239 233 235 242 247 247 247 248 249 250 251 251 250 250 251 251 252 251 251 251 251 251
186 169 164 171 207 216 195 207 261 330 203 179 167 157 169 161 157 179 210 162 130 74 59 97 81 57 32 18 359 345 339 245 208 206 22 9 3 1 355 350 348 345 345 349 352 357 360 1 359 353 354 4 10 10 10 9 4 0 358 351 339 320 295 273 254 239 232 233 241 247 249 250 251 251 252 251 251 251 252 253 253 253 252 251 251 251
155 192 212 199 185 197 222 229 242 251 216 162 148 147 130 108 146 181 285 196 151 116 77 87 63 34 22 13 1 352 342 249 212 206 359 349 346 347 346 344 345 344 342 343 346 350 352 355 357 354 349 352 1 7 10 10 5 2 1 358 349 340 332 316 290 257 237 229 231 238 244 249 251 252 253 253 253 253 254 254 254 254 253 252 251 251
106 64 194 210 196 186 214 235 221 223 210 123 147 154 154 182 175 180 267 229 154 131 102 69 37 19 10 358 356 354 336 275 244 296 335 332 331 334 335 334 334 337 338 340 341 342 345 347 351 352 349 345 347 356 7 11 8 4 4 3 357 349 342 337 323 271 237 229 229 233 238 242 246 249 251 253 255 255 255 255 256 255 255 254 254 253
127 119 188 214 211 193 211 242 244 245 264 140 158 160 154 169 180 205 265 225 144 150 159 40 350 342 341 332 334 335 310 286 289 302 314 320 320 321 323 324 325 327 329 333 334 334 336 341 344 347 348 345 341 344 355 6 9 7 3 2 2 360 349 339 336 281 228 222 222 227 233 236 240 243 246 250 253 254 255 256 257 257 257 257 256 256
130 144 199 222 228 215 219 238 255 267 244 174 173 166 149 156 194 231 265 111 141 179 230 314 313 315 311 305 300 285 281 286 288 297 307 313 312 311 312 314 315 316 318 321 326 327 328 333 338 341 343 343 339 338 342 351 2 5 2 358 359 2 358 342 330 304 254 236 223 221 226 229 234 239 241 244 248 252 254 256 257 258 258 258 258 257
165 158 183 224 231 218 224 244 262 278 214 161 156 155 162 183 218 231 73 90 148 189 244 295 302 310 305 295 287 279 284 292 293 296 304 309 309 306 304 305 306 306 306 307 313 321 322 323 328 333 336 339 338 335 333 337 348 358 0 359 355 356 358 348 329 308 295 286 256 233 227 226 230 234 237 239 243 247 250 253 256 257 258 259 258 258
180 189 202 202 193 197 225 224 240 286 158 149 147 153 191 211 329 63 86 107 179 207 268 285 293 306 304 298 296 292 293 298 300 301 304 307 308 306 301 299 299 301 301 300 302 311 316 316 318 323 328 333 335 334 330 331 336 345 353 356 353 351 352 350 338 317 303 304 298 274 248 233 231 234 238 241 242 244 248 250 251 253 256 258 258 259
188 204 213 201 187 202 216 201 214 333 152 162 162 156 191 207 302 4 322 232 219 251 284 286 292 304 303 298 299 300 301 301 303 305 307 306 307 307 304 299 294 293 295 294 293 297 304 308 309 313 320 327 330 330 329 328 328 332 341 348 350 349 347 346 343 331 309 295 300 302 282 247 235 236 239 240 241 243 245 246 248 251 254 256 257 258
205 197 233 227 200 220 254 238 53 40 160 176 185 145 155 199 255 289 276 255 244 263 282 288 297 306 307 301 298 298 300 302 304 305 307 306 304 304 305 303 297 291 291 291 289 288 291 297 301 304 310 319 324 325 326 326 324 324 329 337 343 344 341 340 341 337 324 299 283 295 297 272 247 242 243 241 240 241 241 242 248 254 257 257 256 255
213 138 105 275 201 259 271 252 225 206 188 189 201 203 179 207 252 261 250 248 252 269 285 293 300 306 307 304 300 296 297 301 304 305 305 305 303 301 303 304 300 295 291 288 288 285 282 285 290 295 300 307 315 319 320 321 321 320 320 326 334 337 336 336 338 336 330 315 288 275 284 283 268 255 249 245 243 243 242 242 247 252 256 258 257 252
194 184 196 220 191 223 247 218 207 217 208 204 215 227 225 240 253 239 235 240 251 270 287 298 304 308 306 303 300 298 299 302 303 303 303 303 302 301 301 300 300 299 294 288 286 286 281 278 281 286 290 295 303 311 313 315 317 316 314 317 323 329 331 333 334 333 330 324 309 283 275 282 280 266 256 250 246 246 243 240 240 243 248 253 253 249
171 180 199 217 209 217 246 227 218 238 230 225 229 225 225 243 249 232 232 246 259 270 284 298 304 305 302 301 300 300 300 301 300 301 301 301 301 300 299 297 297 298 296 290 286 286 282 276 274 277 282 288 295 302 305 308 311 313 311 310 313 320 324 325 328 329 327 324 318 306 290 284 278 263 254 249 245 244 242 239 238 240 245 250 252 250
141 166 186 197 210 234 261 253 235 245 253 240 232 229 235 245 238 222 232 251 257 264 280 295 302 303 300 300 304 303 300 300 301 300 299 300 299 298 297 297 296 295 294 292 288 285 281 274 269 270 275 281 289 295 298 301 305 308 308 307 307 310 316 319 318 319 321 320 319 316 307 294 276 260 254 250 248 245 241 239 240 241 243 246 249 250
157 181 165 161 220 236 245 230 213 225 265 245 228 232 238 232 216 217 235 249 253 262 280 292 299 303 302 303 306 303 299 301 302 301 299 298 297 296 295 295 295 293 292 292 289 285 278 272 267 265 268 274 283 290 293 296 300 302 303 304 304 304 308 312 310 308 313 317 317 317 315 311 295 270 256 250 250 250 246 242 241 242 245 248 248 248
199 202 178 190 231 240 244 240 219 219 253 256 226 223 221 211 210 224 239 248 252 262 278 291 298 302 304 309 310 305 302 303 303 301 299 297 296 295 294 293 293 291 291 292 289 284 278 272 267 263 262 266 276 285 288 290 294 298 299 300 301 300 301 305 306 304 305 309 312 313 316 322 321 301 277 259 252 250 248 246 244 243 245 251 254 252